Notices

What's New in latest Release from April 7th, 2021:

- Updated Glossary, including Speed of Maximum Gust, and Total Hourly Precipitation

- Updated national and regional climate services offices contacts and prices information

- Addition of station inventory lists for 1981-2010, 1971-2000, and 1961-1990 Normals.

If you haven't already, please take our survey and provide feedback about our website: https://eccc.sondage-survey.ca/f/LanguageSelection.aspx?s=442ca660-fcf1-47c0-95a9-59707d6fd709

Hourly Data Report for April 22, 2018

KENORA A
ONTARIO
Current Station Operator: NAVCAN

49°47'18.000" N
94°21'47.000" W
409.70 m
6034076
71850
YQK

Download Data

Hourly Data (April 2018)
Hourly Data Report for April 22, 2018
TIME
LST
Temp Definition
°C
Dew Point Definition
°C
Rel Hum Definition
%
Precip. Amount Definition
mm

Wind Dir Definition
10's deg

Wind Spd Definition
km/h
Visibility Definition
km
Stn Press Definition
kPa
Hmdx Definition


Wind Chill Definition


Weather Definition


00:00 7.7 -2.5 48   20 10 24.1 97.52     Clear
01:00 6.7 -1.0 58   16 14 24.1 97.48     LegendNANA
02:00 5.7 -1.1 62   17 10 24.1 97.48     LegendNANA
03:00 5.4 -0.5 66   18 11 24.1 97.46     Mainly Clear
04:00
05:00 4.7 0.2 73   19 14 24.1 97.46     LegendNANA
06:00 4.5 0.9 77   20 13 24.1 97.49     Mostly Cloudy
07:00 5.2 1.2 75   20 11 24.1 97.48     LegendNANA
08:00 7.2 1.0 65   19 19 24.1 97.42     LegendNANA
09:00 9.1 0.4 54   21 23 32.2 97.37     Mostly Cloudy
10:00 10.3 -1.0 45   20 32 32.2 97.30     LegendNANA
11:00 11.1 -2.2 39   21 36 32.2 97.32     LegendNANA
12:00 12.7 -2.8 34   20 35 24.1 97.26     Mostly Cloudy
13:00 13.7 -2.6 32   20 33 24.1 97.21     LegendNANA
14:00 14.0 -0.4 37   20 32 32.2 97.15     LegendNANA
15:00 14.7 0.2 37   20 26 24.1 97.08     Mostly Cloudy
16:00 14.1 0.3 39   21 28 32.2 97.04     LegendNANA
17:00 13.7 1.0 42   22 23 32.2 97.03     LegendNANA
18:00 12.2 1.7 49   22 23 24.1 96.98     Mostly Cloudy
19:00 11.0 2.4 55   21 18 24.1 97.00     LegendNANA
20:00 10.3 3.0 61   21 17 24.1 96.99     LegendNANA
21:00 9.7 3.4 65   21 14 24.1 97.00     Mostly Cloudy
22:00 8.9 3.5 69   21 14 24.1 96.98     LegendNANA
23:00 8.0 3.3 72   19 15 24.1 96.96     LegendNANA

Notes on Data Quality.

Legend

  • E = Estimated
  • M = Missing
  • NA = Not Available*
  • [empty] = Indicates an unobserved value
Date modified: